Time,TemperatureF,DewpointF,PressureIn,WindDirection,WindDirectionDegrees,WindSpeedMPH,WindSpeedGustMPH,Humidity,HourlyPrecipIn,Conditions,Clouds,dailyrainin,SoftwareType,DateUTC
2013-02-27 00:02:00,36.0,34.0,30.11,NE,56,13.0,24.0,92,0.04,,,0.05,,2013-02-27 05:02:00,
2013-02-27 00:12:00,36.0,34.0,30.11,NE,56,13.0,24.0,92,0.04,,,0.05,,2013-02-27 05:12:00,
2013-02-27 00:22:00,36.0,34.0,30.11,East,82,14.0,22.0,92,0.00,,,0.05,,2013-02-27 05:22:00,
2013-02-27 00:32:00,36.0,34.0,30.11,ENE,71,14.0,23.0,92,0.00,,,0.05,,2013-02-27 05:32:00,
2013-02-27 00:42:00,36.0,34.0,30.11,ENE,71,14.0,23.0,92,0.00,,,0.05,,2013-02-27 05:42:00,
2013-02-27 00:52:00,36.0,34.0,30.11,East,80,11.0,17.0,93,0.03,,,0.08,,2013-02-27 05:52:00,
2013-02-27 01:02:00,36.0,34.0,30.11,ENE,62,9.0,20.0,93,0.01,,,0.11,,2013-02-27 06:02:00,
2013-02-27 01:11:00,36.0,34.0,30.11,ENE,62,9.0,20.0,93,0.01,,,0.11,,2013-02-27 06:11:00,
2013-02-27 01:22:00,36.0,34.0,30.11,ENE,65,9.0,18.0,93,0.13,,,0.18,,2013-02-27 06:22:00,
2013-02-27 01:33:00,36.0,34.0,30.11,NE,56,12.0,18.0,93,0.15,,,0.20,,2013-02-27 06:33:00,
2013-02-27 01:42:00,36.0,34.0,30.11,NE,56,12.0,18.0,93,0.15,,,0.20,,2013-02-27 06:42:00,
2013-02-27 01:52:00,36.0,34.0,30.11,ENE,71,14.0,22.0,94,0.14,,,0.22,,2013-02-27 06:52:00,
2013-02-27 02:01:00,36.0,34.0,30.11,ENE,59,13.0,20.0,94,0.11,,,0.22,,2013-02-27 07:01:00,
2013-02-27 02:12:00,36.0,34.0,30.11,ENE,59,13.0,20.0,94,0.11,,,0.22,,2013-02-27 07:12:00,
2013-02-27 02:21:00,36.0,34.0,30.11,ENE,62,11.0,20.0,94,0.06,,,0.24,,2013-02-27 07:21:00,
2013-02-27 02:32:00,36.0,34.0,30.11,NE,56,12.0,20.0,94,0.04,,,0.24,,2013-02-27 07:32:00,
2013-02-27 02:42:00,36.0,34.0,30.11,NE,56,12.0,20.0,94,0.04,,,0.24,,2013-02-27 07:42:00,
2013-02-27 02:52:00,37.0,35.0,30.11,ENE,62,11.0,25.0,94,0.05,,,0.27,,2013-02-27 07:52:00,
2013-02-27 03:01:00,37.0,35.0,30.11,ENE,65,13.0,22.0,94,0.05,,,0.27,,2013-02-27 08:01:00,
2013-02-27 03:11:00,37.0,35.0,30.11,ENE,65,13.0,22.0,94,0.05,,,0.27,,2013-02-27 08:11:00,
2013-02-27 03:12:00,37.0,36.0,30.11,ENE,57,14.0,24.0,95,0.03,,,0.27,,2013-02-27 08:12:00,
2013-02-27 03:22:00,37.0,36.0,30.11,ENE,65,14.0,21.0,95,0.03,,,0.27,,2013-02-27 08:22:00,
2013-02-27 03:32:00,37.0,36.0,30.11,ENE,57,14.0,24.0,95,0.03,,,0.27,,2013-02-27 08:32:00,
2013-02-27 03:42:00,37.0,36.0,30.11,ENE,57,14.0,24.0,95,0.03,,,0.27,,2013-02-27 08:42:00,
2013-02-27 03:53:00,37.0,36.0,30.11,ENE,57,14.0,24.0,95,0.03,,,0.27,,2013-02-27 08:53:00,
2013-02-27 04:02:00,37.0,36.0,30.11,ENE,57,14.0,24.0,95,0.03,,,0.27,,2013-02-27 09:02:00,
2013-02-27 21:01:00,45.0,37.0,29.65,WNW,299,11.0,21.0,72,0.00,,,0.87,,2013-02-28 02:01:00,
2013-02-27 21:11:00,45.0,37.0,29.65,WNW,299,11.0,21.0,72,0.00,,,0.87,,2013-02-28 02:11:00,
2013-02-27 21:22:00,45.0,37.0,29.65,NW,318,6.0,16.0,73,0.00,,,0.87,,2013-02-28 02:22:00,
2013-02-27 21:32:00,45.0,37.0,29.66,NW,310,9.0,17.0,72,0.00,,,0.87,,2013-02-28 02:32:00,
2013-02-27 21:42:00,45.0,37.0,29.66,NW,310,9.0,17.0,72,0.00,,,0.87,,2013-02-28 02:42:00,
2013-02-27 21:52:00,45.0,37.0,29.66,NW,310,9.0,17.0,72,0.00,,,0.87,,2013-02-28 02:52:00,
2013-02-27 22:02:00,45.0,37.0,29.65,NW,323,7.0,15.0,72,0.00,,,0.87,,2013-02-28 03:02:00,
2013-02-27 22:11:00,45.0,37.0,29.65,NW,323,7.0,15.0,72,0.00,,,0.87,,2013-02-28 03:11:00,
2013-02-27 22:21:00,45.0,37.0,29.65,NW,318,7.0,17.0,72,0.00,,,0.87,,2013-02-28 03:21:00,
2013-02-27 22:32:00,45.0,37.0,29.64,NNW,328,10.0,17.0,72,0.00,,,0.87,,2013-02-28 03:32:00,
2013-02-27 22:42:00,45.0,37.0,29.64,NNW,328,10.0,17.0,72,0.00,,,0.87,,2013-02-28 03:42:00,
2013-02-27 22:52:00,45.0,37.0,29.64,NW,308,7.0,12.0,73,0.00,,,0.86,,2013-02-28 03:52:00,
2013-02-27 23:02:00,45.0,37.0,29.64,NW,321,7.0,13.0,73,0.00,,,0.86,,2013-02-28 04:02:00,
2013-02-27 23:11:00,45.0,37.0,29.64,NW,321,7.0,13.0,73,0.00,,,0.86,,2013-02-28 04:11:00,
2013-02-27 23:22:00,45.0,37.0,29.64,WNW,298,5.0,9.0,74,0.00,,,0.82,,2013-02-28 04:22:00,
2013-02-27 23:32:00,45.0,37.0,29.64,WNW,295,4.0,8.0,74,0.00,,,0.82,,2013-02-28 04:32:00,
2013-02-27 23:42:00,45.0,37.0,29.64,WNW,295,4.0,8.0,74,0.00,,,0.82,,2013-02-28 04:42:00,
2013-02-27 23:52:00,45.0,37.0,29.63,WSW,254,5.0,9.0,74,0.00,,,0.82,,2013-02-28 04:52:00,